Dewpoint
30 29 28 26 28 25 19 21 20 19 24 26 25 25 25 25 27 29 29 30 34 37 42 51 58 59 61 64 64 66 65 65 66 65 64 60 54 53 52 51 50 48 48 48
27 25 21 26 28 28 26 24 22 22 23 27 27 25 25 27 28 30 30 29 30 32 40 50 57 58 60 63 65 66 66 66 65 64 62 60 56 51 48 47 48 48 48 49
20 20 21 22 26 28 27 25 23 23 23 25 27 25 24 25 27 29 30 31 31 31 39 48 55 57 59 61 64 65 65 65 64 64 59 54 51 46 42 43 43 46 47 48
20 19 23 25 26 26 21 22 25 26 25 19 20 19 19 19 22 28 30 32 32 32 38 45 52 55 59 60 63 65 66 65 62 59 54 49 45 41 38 40 42 44 46 45
14 19 20 27 27 25 23 23 25 27 25 24 21 20 21 20 21 24 27 32 33 36 40 44 50 53 57 60 62 63 64 59 54 52 51 46 42 40 39 40 44 44 45 43
11 17 22 23 25 25 26 27 29 29 27 22 20 20 15 15 20 25 25 29 34 38 43 45 48 51 56 58 58 54 54 50 49 48 46 42 39 37 36 39 41 40 39 39
17 13 20 24 23 24 27 25 21 18 20 17 11 11 14 18 18 21 25 27 32 37 43 46 48 51 54 56 55 49 46 44 43 44 41 40 39 36 37 39 35 34 35 36
15 12 14 25 25 19 24 24 21 14 10 9 10 11 13 20 25 25 28 29 30 37 42 46 48 51 52 54 52 45 40 39 40 39 37 36 36 36 37 34 34 33 33 35
18 15 17 17 26 20 24 27 23 20 19 15 13 11 16 28 28 29 30 31 32 37 42 46 48 50 52 50 46 41 38 38 37 36 37 37 38 37 35 37 37 36 37 34
21 18 18 20 24 25 26 29 24 23 16 10 7 8 9 18 27 29 31 30 33 38 43 45 48 50 49 47 40 39 37 36 36 37 37 38 36 36 36 35 34 35 38 38
22 21 20 19 25 23 23 24 25 25 23 14 8 9 12 13 26 27 30 32 35 39 43 44 47 48 47 44 40 37 35 33 34 36 34 34 33 33 34 35 37 38 38 36
23 22 20 23 26 24 25 24 28 26 22 25 19 16 21 21 24 29 31 35 37 40 43 44 46 46 45 41 39 37 34 32 34 32 32 33 33 34 35 36 37 38 36 36
23 24 24 20 25 26 25 26 27 25 23 22 23 21 32 26 31 36 37 38 39 41 42 43 44 44 42 40 37 34 33 31 29 29 32 33 34 34 35 35 35 35 35 35
25 23 25 26 25 28 28 26 25 26 27 22 21 20 28 32 33 35 36 38 39 41 41 42 43 42 40 38 35 33 30 29 28 30 31 33 34 34 35 35 35 36 35 34
24 24 24 24 24 22 25 27 27 26 29 27 26 20 20 21 30 33 36 37 38 39 40 41 41 40 39 36 32 30 28 28 28 29 31 34 35 35 35 35 35 35 35 34
28 25 25 23 23 22 20 20 23 27 28 27 27 23 22 23 26 32 36 36 37 38 39 39 39 39 38 34 30 27 28 29 29 31 31 33 33 33 33 34 34 35 35 35
32 28 26 24 22 21 23 23 21 21 26 28 26 27 27 26 28 33 35 35 35 36 37 37 38 38 36 32 28 27 29 30 30 30 31 31 31 31 32 33 33 34 34 35
38 31 28 26 25 23 28 30 27 24 25 25 28 28 27 27 30 33 35 35 35 35 35 36 37 37 34 30 27 29 30 30 30 29 29 30 30 30 32 33 33 34 34 34
35 37 33 29 28 28 25 26 28 28 28 30 27 26 28 30 30 32 34 35 35 35 35 36 37 35 31 28 29 29 30 30 29 29 29 30 31 32 33 33 34 34 34 34
34 35 34 32 29 26 26 28 34 33 30 31 30 30 29 29 31 32 36 38 36 36 35 35 35 32 28 28 30 29 29 29 29 29 30 32 33 32 33 33 34 34 33 33
32 33 29 30 29 31 28 32 34 31 29 34 35 34 35 34 33 34 37 37 36 34 33 32 31 28 29 30 30 30 30 29 30 31 32 33 33 33 33 33 33 33 32 31
31 31 29 31 29 27 35 36 34 36 32 31 34 38 39 40 38 36 36 35 33 31 29 28 28 28 29 30 30 28 28 30 31 32 32 32 32 31 32 32 32 30 30 30
28 31 30 32 31 36 35 36 35 31 32 29 34 36 36 33 31 32 32 30 27 26 26 27 28 30 30 28 25 26 30 31 32 32 32 31 31 30 31 29 29 29 29 29
36 38 37 37 35 35 34 31 30 27 28 27 32 33 31 28 26 25 25 24 25 26 26 27 28 28 27 27 28 29 30 31 32 32 32 30 31 29 29 29 29 30 30 30
35 36 35 35 36 34 34 32 29 25 26 28 31 31 30 26 24 24 24 25 26 26 26 28 27 27 27 27 28 30 31 31 31 31 30 31 32 31 29 28 29 29 30 30
37 36 35 35 38 37 37 38 33 31 27 28 27 28 27 26 25 25 25 26 26 26 27 26 27 27 27 27 29 29 29 27 26 25 27 27 29 30 30 26 27 26 27 28
Wind_Speed
19 18 33 28 27 24 22 21 23 20 3 11 17 19 20 17 17 18 21 19 20 22 22 19 17 16 16 18 22 23 23 22 19 17 17 15 15 14 13 11 11 10 9 7
19 39 33 24 25 27 28 24 26 21 19 14 21 27 23 24 19 22 26 26 26 25 24 21 21 19 19 20 21 24 24 25 22 19 16 16 15 12 13 11 10 9 8 7
37 34 30 28 29 28 31 32 26 27 22 23 19 32 29 31 30 23 29 27 27 28 26 27 26 24 21 22 23 24 26 25 22 22 16 16 13 13 12 11 10 8 8 7
30 39 17 27 33 30 33 29 26 25 21 28 16 32 25 18 21 20 21 25 29 27 26 29 29 26 24 22 20 22 22 25 19 23 23 24 19 18 13 12 10 9 8 7
33 25 35 28 41 28 33 19 15 18 24 27 34 27 26 28 33 25 25 24 25 23 25 31 32 28 24 22 21 20 22 23 24 19 22 22 18 15 14 13 13 10 9 7
40 20 24 42 30 26 12 16 11 11 14 30 28 23 37 31 29 26 24 22 23 25 25 28 27 25 24 22 22 22 24 21 21 22 20 18 21 19 16 14 13 11 8 7
40 36 21 24 23 26 26 18 19 19 21 36 8 21 40 8 15 18 24 21 22 25 25 26 29 28 27 27 25 22 23 23 19 19 18 20 19 16 15 15 11 10 7 6
39 29 41 32 39 31 34 30 18 22 25 36 22 30 24 18 22 28 25 23 20 22 25 27 30 28 27 27 27 26 25 23 21 20 21 19 18 14 13 11 10 8 6 4
35 46 29 29 30 34 25 35 36 11 21 20 23 34 24 11 14 19 24 23 23 20 23 26 27 27 25 27 28 27 25 23 22 23 20 18 16 16 14 12 10 8 6 4
35 32 34 30 26 31 29 26 20 21 17 30 36 33 32 18 23 22 23 26 23 17 21 24 26 27 26 27 28 25 24 25 22 22 20 18 17 15 14 12 10 7 6 4
45 33 22 28 29 43 31 29 24 25 18 24 43 36 22 27 22 24 25 23 17 17 20 23 25 27 27 28 29 28 25 26 25 22 20 20 18 16 13 11 9 7 5 2
46 25 42 30 33 33 39 41 42 24 33 23 29 61 10 9 12 21 19 14 15 17 20 22 25 27 29 31 31 30 27 26 24 21 20 18 17 15 13 10 8 5 3 1
39 30 34 32 27 29 46 40 37 36 16 36 30 63 2 13 11 11 12 11 15 19 22 23 27 30 31 32 31 30 28 26 24 22 21 19 16 14 12 9 6 4 3 3
26 35 46 40 44 24 33 40 42 38 29 50 35 62 10 11 15 12 11 13 15 18 22 24 27 30 32 32 32 30 28 26 24 22 21 19 16 13 11 8 5 4 3 5
29 34 42 46 51 35 31 39 41 44 48 37 65 43 36 31 21 20 18 16 17 20 23 26 29 31 33 33 31 30 28 27 25 23 21 18 15 12 10 8 6 5 4 4
25 29 39 47 45 44 41 40 46 50 53 48 56 54 27 26 16 25 19 19 22 22 25 27 28 31 34 34 33 31 29 27 25 23 20 18 15 12 10 8 6 6 4 3
27 28 35 42 40 38 42 56 45 41 45 51 51 53 30 39 28 21 25 24 25 25 28 30 33 34 35 36 35 34 31 27 25 22 19 17 15 12 9 8 7 5 3 2
16 30 31 40 28 41 39 30 42 48 47 43 46 42 37 35 31 29 26 27 28 29 29 28 28 30 32 32 31 30 29 27 24 21 19 16 14 12 10 8 6 4 2 1
35 17 15 31 36 22 27 32 33 37 42 45 54 44 35 35 36 34 27 31 35 33 30 28 28 29 32 34 32 32 29 26 24 21 18 15 13 12 10 8 6 3 2 1
37 29 19 8 20 30 43 36 19 17 44 30 31 36 41 36 37 31 27 23 28 24 25 27 29 30 33 33 33 33 29 26 23 20 18 15 13 12 10 9 7 5 4 4
23 23 36 26 12 20 15 6 28 22 14 13 22 30 29 35 35 27 17 28 26 22 23 28 33 33 32 32 31 30 27 24 21 19 17 15 12 11 10 9 7 6 5 2
24 17 10 16 19 30 12 12 28 17 2 1 3 7 11 17 7 2 12 18 23 26 29 32 34 33 34 34 31 32 26 23 21 19 17 15 13 10 10 9 8 6 4 2
35 23 22 20 18 1 15 12 8 4 5 3 4 4 8 9 7 10 14 19 23 27 29 30 31 31 29 31 29 29 25 23 22 20 18 16 13 11 10 10 8 6 3 3
16 14 11 7 19 25 13 8 5 5 4 7 5 5 7 8 13 16 20 21 23 25 29 29 31 31 28 25 25 25 25 22 20 19 17 16 14 13 11 9 7 5 4 4
28 18 17 19 11 6 12 19 13 11 8 8 6 9 10 15 14 17 19 22 24 26 27 30 30 29 29 26 24 24 23 23 21 20 16 15 13 11 11 7 6 5 5 5
19 14 21 19 14 10 8 17 11 13 14 12 12 11 12 16 20 20 20 22 24 25 27 27 28 29 27 24 24 23 23 22 23 21 16 15 13 10 8 7 4 7 8 8
Wind_Direction
199 217 222 215 225 246 259 254 248 253 205 238 237 245 265 265 245 246 244 234 232 233 235 207 203 192 187 181 179 175 173 169 160 144 149 142 138 141 133 126 126 120 113 108
202 228 231 228 228 239 241 249 251 256 258 247 266 263 262 265 252 244 246 240 235 233 230 205 202 195 191 185 173 179 178 168 169 160 160 156 154 148 135 129 120 117 118 108
212 230 223 226 226 231 238 243 251 256 272 250 269 267 259 257 258 249 243 245 239 231 224 210 204 197 191 187 181 183 178 171 175 158 148 145 137 142 137 137 134 126 128 125
224 240 224 221 231 220 241 235 250 261 259 264 264 278 267 263 247 236 249 236 236 233 225 216 203 196 192 190 185 182 176 169 167 159 159 163 163 161 154 151 142 144 138 126
220 220 218 216 225 219 240 244 246 250 255 271 259 266 256 251 250 250 242 237 230 222 217 213 204 197 189 182 178 173 171 165 165 161 164 164 165 151 153 153 152 149 146 144
234 218 217 227 233 228 231 226 228 244 256 258 253 246 267 244 237 236 249 233 223 214 213 216 205 194 185 175 170 165 165 157 157 156 158 163 161 158 157 158 159 158 157 154
232 233 221 227 227 214 212 203 228 239 225 248 252 233 244 265 254 239 237 235 225 214 209 206 200 193 183 177 167 158 153 151 150 153 156 160 158 157 157 159 158 153 153 161
222 225 220 209 217 209 208 203 200 224 235 255 244 242 265 250 238 246 241 248 234 214 209 206 198 195 186 174 162 159 152 150 151 152 156 152 150 152 148 150 148 153 157 158
218 233 222 214 213 207 201 209 220 269 270 275 250 259 253 218 229 236 234 234 239 216 206 206 194 195 183 173 163 159 150 151 154 156 151 149 150 149 148 146 151 148 143 141
234 246 226 210 207 222 202 199 197 213 234 241 261 254 255 230 224 228 232 237 238 212 202 201 193 186 181 173 161 159 157 155 156 154 154 150 146 145 146 148 146 139 125 126
235 246 244 199 198 203 204 218 210 207 226 241 257 263 261 250 207 230 233 240 233 205 200 196 191 182 181 173 167 167 164 161 161 158 155 150 148 145 143 136 129 122 125 97
222 231 244 210 219 214 206 206 200 195 210 229 252 266 232 221 220 223 240 229 213 194 190 188 185 182 182 178 171 170 168 167 163 158 151 145 143 141 137 132 128 129 125 102
220 223 238 232 220 215 217 216 212 225 229 229 233 256 53 226 224 209 223 206 195 187 177 181 181 185 184 180 174 171 170 167 162 156 149 146 145 143 138 136 134 135 165 210
245 223 222 222 217 215 219 223 222 219 230 241 235 250 206 189 199 203 204 186 189 191 178 180 184 186 186 182 175 171 170 164 160 157 153 150 148 145 141 140 149 166 181 221
239 230 232 234 236 224 220 222 226 226 226 227 241 247 246 247 221 220 214 201 189 193 187 188 188 188 186 181 175 171 165 163 161 158 154 150 144 141 141 150 158 169 199 214
237 230 232 243 243 241 240 237 227 227 234 232 247 256 250 251 252 217 198 194 200 197 196 196 190 188 185 181 174 169 166 163 159 157 153 147 144 147 152 154 164 175 186 181
241 227 228 238 238 241 240 238 237 245 233 236 244 250 247 252 248 224 209 205 203 202 200 196 194 188 183 181 173 170 163 157 157 152 147 148 150 149 154 161 168 155 152 164
268 224 228 238 239 232 241 242 237 244 249 246 252 253 255 255 251 228 222 215 207 207 203 196 189 185 182 176 169 161 156 154 152 150 149 150 151 150 158 166 142 143 166 215
248 265 238 232 224 241 239 233 227 230 250 239 247 255 257 252 255 248 234 225 219 207 203 194 186 178 173 172 163 156 153 152 150 150 151 148 153 158 162 148 147 136 143 203
223 228 255 201 220 225 242 239 220 224 255 245 239 240 245 249 241 242 228 224 227 218 196 182 175 169 170 167 160 152 151 151 152 152 148 152 159 160 151 149 164 175 191 228
228 217 220 238 263 249 233 215 182 201 256 225 231 240 240 241 242 249 206 215 211 201 183 168 164 166 163 160 157 147 148 149 148 145 148 150 156 156 151 165 178 183 202 202
210 199 203 214 227 253 190 154 190 216 175 169 267 244 240 251 255 268 188 183 182 172 163 161 156 160 158 158 149 145 146 143 143 144 148 150 154 149 166 169 165 174 161 172
238 213 216 201 223 59 198 206 194 120 165 185 248 238 181 167 157 154 163 162 162 164 159 159 158 149 155 156 147 143 139 142 146 147 150 148 147 155 160 163 160 148 158 186
220 200 204 208 252 248 211 221 227 170 168 185 186 161 176 166 150 145 147 152 156 157 158 154 152 149 145 141 140 137 143 145 148 144 146 145 149 155 160 157 154 157 172 192
253 189 209 230 227 239 233 217 197 196 174 165 154 155 166 154 153 152 151 153 154 156 153 155 154 146 139 141 136 140 144 149 147 143 145 142 149 163 155 150 153 175 197 210
256 208 189 220 203 209 197 222 191 205 198 183 161 148 150 158 153 150 151 153 151 149 150 155 149 139 138 139 139 145 152 158 147 149 151 155 157 159 149 150 184 237 242 235